TimeEDT,TemperatureF,Dew PointF,Humidity,Sea Level PressureIn,VisibilityMPH,Wind Direction,Wind SpeedMPH,Gust SpeedMPH,PrecipitationIn,Events,Conditions,WindDirDegrees,DateUTC
12:53 AM,69.1,66.0,90,30.03,4.0,SSE,4.6,-,N/A,,Partly Cloudy,160,2013-10-03 04:53:00
1:28 AM,69.8,66.2,88,30.04,4.0,South,6.9,-,N/A,,Mostly Cloudy,190,2013-10-03 05:28:00
1:41 AM,69.8,66.2,88,30.04,4.0,South,6.9,-,N/A,,Scattered Clouds,190,2013-10-03 05:41:00
1:53 AM,69.1,66.9,93,30.02,4.0,SSE,4.6,-,N/A,,Partly Cloudy,160,2013-10-03 05:53:00
2:21 AM,69.8,66.2,88,30.04,3.0,South,5.8,-,N/A,,Scattered Clouds,190,2013-10-03 06:21:00
2:27 AM,69.8,66.2,88,30.04,2.5,South,6.9,-,N/A,,Mostly Cloudy,180,2013-10-03 06:27:00
2:38 AM,69.8,66.2,88,30.04,1.0,South,6.9,-,N/A,,Mostly Cloudy,170,2013-10-03 06:38:00
2:48 AM,69.8,66.2,88,30.04,0.8,South,5.8,-,N/A,,Mist,170,2013-10-03 06:48:00
2:53 AM,69.1,66.9,93,30.02,0.8,South,5.8,-,N/A,,Mist,180,2013-10-03 06:53:00
3:07 AM,69.8,66.2,88,30.04,1.0,South,5.8,-,N/A,,Mist,180,2013-10-03 07:07:00
3:32 AM,69.8,66.2,88,30.03,2.5,South,4.6,-,N/A,,Overcast,190,2013-10-03 07:32:00
3:53 AM,69.1,66.9,93,30.02,2.0,South,5.8,-,N/A,,Overcast,180,2013-10-03 07:53:00
4:10 AM,69.8,66.2,88,30.04,3.0,South,6.9,-,N/A,,Overcast,180,2013-10-03 08:10:00
4:53 AM,69.1,66.0,90,30.03,3.0,South,4.6,-,N/A,,Partly Cloudy,190,2013-10-03 08:53:00
5:53 AM,69.1,66.0,90,30.04,4.0,South,6.9,-,N/A,,Partly Cloudy,190,2013-10-03 09:53:00
6:53 AM,69.1,66.0,90,30.04,4.0,SSW,5.8,-,N/A,,Overcast,200,2013-10-03 10:53:00
7:53 AM,69.1,66.0,90,30.05,4.0,South,5.8,-,N/A,,Mostly Cloudy,190,2013-10-03 11:53:00
8:16 AM,69.8,66.2,88,30.06,3.0,South,8.1,-,N/A,,Overcast,180,2013-10-03 12:16:00
8:23 AM,69.8,66.2,88,30.06,2.5,South,8.1,-,N/A,,Overcast,180,2013-10-03 12:23:00
8:34 AM,69.8,66.2,88,30.06,2.5,South,9.2,-,N/A,,Overcast,180,2013-10-03 12:34:00
8:53 AM,70.0,66.9,90,30.06,2.0,South,8.1,-,N/A,,Overcast,190,2013-10-03 12:53:00
9:37 AM,69.8,66.2,88,30.08,0.8,SW,8.1,-,0.12,Rain,Light Rain,230,2013-10-03 13:37:00
9:51 AM,69.8,66.2,88,30.09,2.0,SSW,6.9,-,0.21,Rain,Rain,200,2013-10-03 13:51:00
9:53 AM,70.0,66.9,90,30.07,2.5,SSW,9.2,-,0.21,Rain,Light Rain,200,2013-10-03 13:53:00
10:00 AM,69.8,66.2,88,30.08,2.5,SSW,6.9,-,0.00,Rain,Light Rain,200,2013-10-03 14:00:00
10:17 AM,71.6,68.0,88,30.08,3.0,SSW,6.9,-,0.01,Rain,Light Rain,210,2013-10-03 14:17:00
10:53 AM,72.0,68.0,87,30.06,4.0,SSW,8.1,-,0.01,,Mostly Cloudy,200,2013-10-03 14:53:00
11:53 AM,75.9,66.9,74,30.06,10.0,SSW,10.4,-,N/A,,Mostly Cloudy,200,2013-10-03 15:53:00
12:53 PM,78.1,64.9,64,30.05,10.0,SW,12.7,18.4,N/A,,Overcast,220,2013-10-03 16:53:00
1:53 PM,79.0,64.9,62,30.03,10.0,SSW,13.8,20.7,N/A,,Mostly Cloudy,210,2013-10-03 17:53:00
2:53 PM,82.0,64.0,54,30.00,10.0,SW,10.4,17.3,N/A,,Scattered Clouds,220,2013-10-03 18:53:00
3:53 PM,82.9,63.0,51,29.98,10.0,SW,13.8,-,N/A,,Partly Cloudy,220,2013-10-03 19:53:00
4:53 PM,82.0,64.0,54,29.97,10.0,South,11.5,18.4,N/A,,Mostly Cloudy,190,2013-10-03 20:53:00
5:53 PM,80.1,64.0,58,29.98,10.0,SSW,13.8,-,N/A,,Partly Cloudy,210,2013-10-03 21:53:00
6:53 PM,79.0,64.9,62,29.98,10.0,South,6.9,-,N/A,,Scattered Clouds,190,2013-10-03 22:53:00
7:53 PM,75.9,64.0,67,29.97,10.0,South,6.9,-,N/A,,Clear,170,2013-10-03 23:53:00
8:53 PM,75.0,64.9,71,29.99,10.0,South,8.1,-,N/A,,Clear,170,2013-10-04 00:53:00
9:53 PM,73.9,64.9,73,30.01,10.0,South,9.2,-,N/A,,Clear,180,2013-10-04 01:53:00
10:53 PM,72.0,64.9,78,30.02,10.0,South,6.9,-,N/A,,Partly Cloudy,180,2013-10-04 02:53:00